GW2742 Weather Reports


Display with metric or nautical units.
time (UTC)temp
F
wind
direction
speed
MPH
gust
MPH
rain 1hr
in
rain 24hr
in
rain mn
in
humidity
%
barometer
mb
20260508164026 58 179 5.0 11.0 0.00 0.09 0.02 68 1015.7
20260508163527 57 167 5.0 11.0 0.00 0.09 0.02 71 1015.6
20260508163104 57 131 5.0 11.0 0.00 0.09 0.02 70 1015.7
20260508162526 57 107 5.0 10.0 0.00 0.09 0.02 72 1015.7
20260508162024 57 158 5.0 10.0 0.00 0.09 0.02 71 1015.8
20260508161540 56 141 4.0 10.0 0.00 0.09 0.02 74 1015.8
20260508161025 56 131 5.0 10.0 0.00 0.09 0.02 74 1016.0
20260508160528 56 81 5.0 10.0 0.00 0.09 0.02 75 1016.0
20260508160037 56 78 5.0 9.0 0.00 0.09 0.02 76 1016.0
20260508155525 56 146 4.0 10.0 0.00 0.09 0.02 79 1016.1
20260508155025 55 160 4.0 10.0 0.00 0.09 0.02 80 1016.2
20260508154537 55 158 5.0 10.0 0.00 0.09 0.02 79 1016.2
20260508154025 54 167 5.0 12.0 0.00 0.09 0.02 79 1016.3
20260508153525 54 150 6.0 12.0 0.00 0.09 0.02 80 1016.3
20260508153037 53 125 4.0 10.0 0.00 0.09 0.02 82 1016.4
20260508152524 52 127 5.0 10.0 0.00 0.09 0.02 83 1016.4
20260508152025 51 131 3.0 10.0 0.00 0.09 0.02 86 1016.4
20260508151541 51 117 4.0 10.0 0.00 0.09 0.02 86 1016.4
20260508151033 51 148 5.0 10.0 0.00 0.09 0.02 86 1016.4
20260508150525 50 148 4.0 9.0 0.00 0.09 0.02 88 1016.5
20260508150040 50 113 4.0 8.0 0.00 0.09 0.02 89 1016.5
20260508145524 49 244 1.0 4.0 0.00 0.09 0.02 90 1016.6
20260508145025 49 21 1.0 5.0 0.00 0.09 0.02 90 1016.7
20260508144540 49 0 0.0 5.0 0.00 0.09 0.02 91 1016.7
20260508144025 48 103 2.0 5.0 0.00 0.09 0.02 91 1016.6
20260508143526 48 105 2.0 5.0 0.00 0.09 0.02 91 1016.7
20260508143037 48 78 2.0 5.0 0.00 0.09 0.02 91 1016.8
20260508142524 48 66 2.0 5.0 0.00 0.09 0.02 92 1016.7
20260508142025 47 106 2.0 5.0 0.00 0.09 0.02 92 1016.7
20260508141537 47 45 2.0 5.0 0.00 0.09 0.02 93 1016.8
20260508141022 47 0 1.0 5.0 0.00 0.09 0.02 93 1016.9
20260508140525 46 14 1.0 5.0 0.00 0.09 0.02 94 1016.7
20260508140036 46 20 0.0 3.0 0.00 0.09 0.02 94 1016.7
20260508135525 46 20 1.0 3.0 0.00 0.11 0.02 94 1016.7
20260508135024 45 25 0.0 3.0 0.00 0.11 0.02 94 1016.6
20260508134544 45 0 0.0 2.0 0.00 0.11 0.02 94 1016.7
20260508134023 44 0 0.0 2.0 0.00 0.11 0.02 94 1016.6
20260508133527 44 0 0.0 2.0 0.00 0.11 0.02 94 1016.6
20260508133045 44 0 0.0 2.0 0.00 0.11 0.02 94 1016.6
20260508132523 43 0 0.0 2.0 0.00 0.11 0.02 94 1016.7
20260508132023 43 0 0.0 3.0 0.00 0.11 0.02 94 1016.7
20260508131545 43 0 0.0 3.0 0.01 0.11 0.02 94 1016.6
20260508131026 43 55 1.0 3.0 0.01 0.11 0.02 94 1016.4
20260508130527 43 0 0.0 1.0 0.01 0.11 0.02 94 1016.4
20260508130047 42 0 0.0 1.0 0.01 0.11 0.02 94 1016.3
20260508125523 41 0 0.0 2.0 0.01 0.11 0.02 94 1016.4
20260508125023 41 0 0.0 3.0 0.01 0.11 0.02 94 1016.4
20260508124536 41 27 1.0 3.0 0.01 0.11 0.02 94 1016.2
20260508124024 40 184 0.0 2.0 0.01 0.11 0.02 94 1016.1
20260508123523 39 0 0.0 0.0 0.01 0.11 0.02 94 1016.1
20260508123041 39 0 0.0 0.0 0.01 0.11 0.02 94 1015.9
20260508122526 39 0 0.0 0.0 0.01 0.11 0.02 93 1016.0
20260508122029 39 0 0.0 0.0 0.01 0.11 0.02 93 1015.8
20260508121539 39 0 0.0 0.0 0.00 0.10 0.01 94 1015.8
20260508121023 39 0 0.0 0.0 0.00 0.10 0.01 94 1015.7
20260508120525 39 0 0.0 0.0 0.00 0.10 0.01 94 1015.8
20260508120036 39 0 0.0 0.0 0.00 0.10 0.01 94 1015.8
20260508115528 39 0 0.0 0.0 0.00 0.11 0.01 93 1015.8
20260508115025 39 0 0.0 0.0 0.00 0.11 0.01 93 1015.8
20260508114537 39 0 0.0 0.0 0.00 0.11 0.01 93 1015.7
20260508114025 39 0 0.0 0.0 0.00 0.11 0.01 93 1015.7
20260508113523 39 0 0.0 0.0 0.00 0.11 0.01 93 1015.7
20260508113047 39 0 0.0 0.0 0.00 0.11 0.01 93 1015.6
20260508112524 39 0 0.0 0.0 0.00 0.11 0.01 94 1015.7
20260508112026 39 0 0.0 0.0 0.00 0.11 0.01 93 1015.8
20260508111541 39 0 0.0 0.0 0.00 0.11 0.01 93 1015.7
20260508111023 39 0 0.0 0.0 0.00 0.11 0.01 94 1015.7
20260508110525 39 0 0.0 0.0 0.00 0.11 0.01 93 1015.6
20260508110050 38 0 0.0 0.0 0.00 0.11 0.01 93 1015.5
20260508105523 37 0 0.0 0.0 0.00 0.14 0.01 93 1015.6
20260508105023 37 0 0.0 0.0 0.00 0.14 0.01 93 1015.5
20260508104537 38 0 0.0 0.0 0.00 0.14 0.01 92 1015.5
20260508104025 38 0 0.0 0.0 0.00 0.14 0.01 92 1015.5
20260508103526 38 0 0.0 0.0 0.00 0.14 0.01 93 1015.6
20260508103040 39 0 0.0 0.0 0.00 0.14 0.01 93 1015.4
20260508102523 38 0 0.0 0.0 0.00 0.14 0.01 93 1015.6
20260508102022 38 0 0.0 2.0 0.00 0.14 0.01 93 1015.5
20260508101547 38 0 0.0 3.0 0.00 0.14 0.01 93 1015.5
20260508101023 38 184 1.0 4.0 0.00 0.14 0.01 92 1015.5
20260508100526 39 184 2.0 4.0 0.00 0.14 0.01 92 1015.4
20260508100043 40 0 0.0 0.0 0.00 0.14 0.01 93 1015.4
20260508095525 40 0 0.0 0.0 0.00 0.14 0.01 93 1015.3
20260508095022 40 0 0.0 0.0 0.00 0.14 0.01 92 1015.4
20260508094550 40 0 0.0 0.0 0.00 0.14 0.01 92 1015.2
20260508094023 40 0 0.0 0.0 0.00 0.14 0.01 93 1015.2
20260508093526 40 0 0.0 0.0 0.00 0.14 0.01 93 1015.1
20260508093051 40 0 0.0 0.0 0.00 0.14 0.01 93 1015.2
20260508092523 40 0 0.0 0.0 0.00 0.14 0.01 93 1015.3
20260508092023 40 0 0.0 0.0 0.00 0.14 0.01 93 1015.2
20260508091540 40 0 0.0 0.0 0.00 0.14 0.01 92 1015.3
20260508091023 40 0 0.0 0.0 0.00 0.14 0.01 92 1015.3
20260508090523 41 0 0.0 0.0 0.00 0.14 0.01 92 1015.2
20260508090056 41 0 0.0 0.0 0.00 0.14 0.01 92 1015.2
20260508085522 41 0 0.0 0.0 0.00 0.14 0.01 92 1015.2
20260508085027 42 0 0.0 0.0 0.00 0.14 0.01 92 1015.2
20260508084536 42 0 0.0 0.0 0.00 0.14 0.01 92 1015.4
20260508084027 42 0 0.0 0.0 0.00 0.14 0.01 92 1015.2
20260508083527 42 0 0.0 0.0 0.00 0.14 0.01 92 1015.2
20260508083041 43 0 0.0 0.0 0.00 0.14 0.01 92 1015.3
20260508082527 43 0 0.0 0.0 0.00 0.14 0.01 92 1015.3
20260508082026 43 0 0.0 0.0 0.00 0.14 0.01 92 1015.2
20260508081541 43 0 0.0 0.0 0.00 0.14 0.01 92 1015.2
20260508081026 43 0 0.0 0.0 0.00 0.14 0.01 92 1015.3
20260508080527 44 0 0.0 0.0 0.00 0.14 0.01 92 1015.3
20260508080039 44 0 0.0 1.0 0.00 0.14 0.01 92 1015.2
20260508075527 44 0 0.0 1.0 0.00 0.14 0.01 92 1015.3
20260508075029 44 0 0.0 1.0 0.00 0.14 0.01 93 1015.1
20260508074541 44 0 0.0 2.0 0.01 0.14 0.01 92 1015.2
20260508074027 44 0 0.0 2.0 0.01 0.14 0.01 92 1015.4
20260508073526 44 213 0.0 2.0 0.01 0.14 0.01 92 1015.2
20260508073037 44 0 0.0 0.0 0.01 0.14 0.01 92 1015.2
20260508072527 44 0 0.0 0.0 0.01 0.14 0.01 92 1015.3
20260508072027 44 0 0.0 0.0 0.01 0.14 0.01 91 1015.2
20260508071539 45 0 0.0 0.0 0.01 0.14 0.01 91 1015.4
20260508071027 45 0 0.0 0.0 0.01 0.14 0.01 91 1015.3
20260508070527 45 0 0.0 0.0 0.01 0.14 0.01 91 1015.3
20260508070041 45 0 0.0 0.0 0.01 0.14 0.01 91 1015.3
20260508065528 45 0 0.0 0.0 0.01 0.14 0.01 91 1015.4
20260508065026 46 0 0.0 0.0 0.00 0.13 0.00 91 1015.3
20260508064536 46 0 0.0 3.0 0.00 0.13 0.00 91 1015.3
20260508064027 46 0 0.0 3.0 0.00 0.13 0.00 91 1015.2
20260508063531 46 213 1.0 3.0 0.00 0.13 0.00 91 1015.4
20260508063043 46 186 0.0 2.0 0.00 0.13 0.00 91 1015.3
20260508062527 46 0 0.0 0.0 0.00 0.13 0.00 91 1015.2
20260508062026 46 0 0.0 1.0 0.00 0.13 0.00 91 1015.2
20260508061541 46 0 0.0 1.0 0.00 0.13 0.00 91 1015.2
20260508061028 46 0 0.0 2.0 0.00 0.13 0.00 91 1015.4
20260508060526 47 0 0.0 3.0 0.00 0.13 0.00 91 1015.4
20260508060043 47 0 0.0 3.0 0.00 0.13 0.00 91 1015.3
20260508055526 47 179 1.0 3.0 0.00 0.13 0.13 90 1015.3
20260508055031 47 0 0.0 1.0 0.00 0.13 0.13 90 1015.4
20260508054555 47 0 0.0 0.0 0.00 0.13 0.13 90 1015.2
20260508054030 47 0 0.0 3.0 0.00 0.13 0.13 90 1015.2
20260508053526 47 0 0.0 3.0 0.00 0.13 0.13 90 1015.2
20260508053040 47 179 1.0 3.0 0.00 0.13 0.13 90 1015.2
20260508052527 48 0 0.0 3.0 0.00 0.13 0.13 89 1015.2
20260508052027 48 143 0.0 2.0 0.00 0.13 0.13 89 1015.0
20260508051537 48 0 0.0 2.0 0.00 0.13 0.13 89 1015.1
20260508051027 48 0 0.0 2.0 0.00 0.13 0.13 88 1014.9
20260508050527 48 0 0.0 3.0 0.00 0.13 0.13 89 1014.9
20260508050047 48 234 1.0 3.0 0.00 0.13 0.13 89 1014.9
20260508045526 49 261 1.0 3.0 0.00 0.13 0.13 89 1015.0
20260508045026 49 262 1.0 3.0 0.00 0.13 0.13 89 1015.0
20260508044543 49 243 0.0 2.0 0.00 0.13 0.13 89 1015.2
20260508044026 49 0 0.0 0.0 0.00 0.13 0.13 89 1015.0
20260508043526 49 0 0.0 2.0 0.00 0.13 0.13 89 1015.1
20260508043038 50 0 0.0 3.0 0.00 0.13 0.13 89 1015.1
20260508042527 50 243 1.0 4.0 0.00 0.13 0.13 89 1015.2
20260508042027 50 237 1.0 5.0 0.00 0.13 0.13 89 1015.2
20260508041548 50 234 1.0 5.0 0.00 0.13 0.13 89 1015.2
20260508041028 50 235 1.0 7.0 0.00 0.13 0.13 89 1015.2
20260508040528 50 220 2.0 7.0 0.01 0.13 0.13 89 1015.1
20260508040039 50 197 4.0 7.0 0.01 0.13 0.13 88 1014.8
20260508035527 50 212 2.0 3.0 0.01 0.13 0.13 89 1014.9
20260508035028 50 215 0.0 3.0 0.01 0.13 0.13 89 1015.0
20260508034540 50 0 0.0 2.0 0.01 0.13 0.13 89 1015.1
20260508034028 50 0 0.0 2.0 0.01 0.13 0.13 89 1015.2
20260508033527 50 0 0.0 0.0 0.01 0.13 0.13 88 1015.3
20260508033039 50 0 0.0 0.0 0.01 0.13 0.13 87 1015.2
20260508032529 50 0 0.0 1.0 0.01 0.13 0.13 87 1015.1
20260508032027 50 0 0.0 3.0 0.01 0.13 0.13 87 1014.9
20260508031553 51 0 0.0 3.0 0.01 0.13 0.13 87 1014.6
20260508031027 50 184 1.0 3.0 0.01 0.13 0.13 87 1014.9
20260508030527 50 252 1.0 4.0 0.00 0.12 0.12 86 1015.1
20260508030046 50 0 0.0 4.0 0.00 0.12 0.12 86 1015.0
20260508025526 50 247 2.0 4.0 0.00 0.12 0.12 86 1014.9
20260508025026 50 245 0.0 2.0 0.00 0.12 0.12 86 1014.7
20260508024536 51 0 0.0 0.0 0.00 0.12 0.12 86 1014.5
20260508024027 51 0 0.0 0.0 0.00 0.12 0.12 85 1014.5
20260508023527 51 0 0.0 2.0 0.00 0.12 0.12 84 1014.2
20260508023042 51 0 0.0 3.0 0.00 0.12 0.12 84 1014.3
20260508022526 51 330 0.0 5.0 0.00 0.12 0.12 84 1014.2
20260508022026 51 345 2.0 5.0 0.00 0.12 0.12 84 1014.0
20260508021542 51 39 2.0 4.0 0.00 0.12 0.12 84 1013.7
20260508021027 51 39 2.0 5.0 0.00 0.12 0.12 84 1013.5
20260508020526 51 0 1.0 5.0 0.00 0.12 0.12 84 1014.1
20260508020037 51 250 1.0 4.0 0.01 0.12 0.12 84 1014.0
20260508015527 51 233 0.0 2.0 0.01 0.12 0.12 84 1013.9
20260508015027 51 245 0.0 2.0 0.02 0.12 0.12 83 1013.8
20260508014537 51 0 0.0 1.0 0.03 0.12 0.12 83 1013.9
20260508014026 51 0 0.0 1.0 0.03 0.12 0.12 83 1013.8
20260508013526 52 0 0.0 2.0 0.04 0.12 0.12 83 1013.7
20260508013043 52 0 0.0 3.0 0.05 0.12 0.12 82 1013.5
20260508012526 52 335 1.0 3.0 0.05 0.12 0.12 81 1013.3
20260508012027 52 353 1.0 5.0 0.06 0.12 0.12 80 1013.2
20260508011536 52 348 1.0 5.0 0.06 0.12 0.12 80 1013.0
20260508011026 52 335 3.0 7.0 0.06 0.12 0.12 79 1012.9
20260508010526 52 349 2.0 7.0 0.05 0.11 0.11 78 1012.6
20260508010044 52 7 2.0 17.0 0.05 0.11 0.11 78 1012.7
20260508005526 53 359 6.0 27.0 0.04 0.10 0.10 74 1012.8
20260508005026 55 347 8.0 27.0 0.04 0.10 0.10 68 1012.2
20260508004539 50 359 9.0 18.0 0.03 0.09 0.09 78 1011.6
20260508004025 51 49 4.0 14.0 0.03 0.09 0.09 82 1013.4
20260508003531 51 340 7.0 15.0 0.02 0.08 0.08 80 1014.0
20260508003049 53 359 5.0 15.0 0.01 0.07 0.07 77 1014.1
20260508002529 55 321 7.0 15.0 0.01 0.07 0.07 73 1014.0
20260508002026 57 285 2.0 5.0 0.00 0.06 0.06 70 1013.5
20260508001537 57 249 2.0 8.0 0.00 0.06 0.06 68 1012.9
20260508001026 58 276 3.0 8.0 0.00 0.06 0.06 67 1012.8
20260508000526 58 230 3.0 8.0 0.00 0.06 0.06 65 1012.3
20260508000040 58 250 2.0 6.0 0.00 0.06 0.06 66 1012.1
20260507235527 58 237 2.0 8.0 0.00 0.06 0.06 67 1012.1
20260507235028 58 233 4.0 8.0 0.00 0.06 0.06 67 1012.0
20260507234540 58 246 3.0 7.0 0.00 0.06 0.06 67 1011.9
20260507234027 58 215 3.0 7.0 0.00 0.06 0.06 67 1012.1
20260507233526 58 210 2.0 7.0 0.00 0.06 0.06 67 1012.2
20260507233040 58 194 5.0 8.0 0.00 0.06 0.06 66 1012.1
20260507232526 58 221 4.0 8.0 0.00 0.06 0.06 66 1012.2
20260507232025 59 227 5.0 8.0 0.00 0.06 0.06 64 1012.1
20260507231545 59 214 5.0 10.0 0.00 0.06 0.06 65 1012.0
20260507231026 59 213 5.0 10.0 0.00 0.06 0.06 64 1012.2
20260507230527 60 220 4.0 9.0 0.00 0.06 0.06 62 1012.2
20260507230040 59 283 2.0 9.0 0.00 0.06 0.06 63 1012.2
20260507225527 58 243 2.0 5.0 0.00 0.06 0.06 67 1012.2
20260507225027 57 264 1.0 4.0 0.00 0.06 0.06 66 1012.4
20260507224556 57 266 2.0 6.0 0.00 0.06 0.06 66 1012.4
20260507224027 57 0 1.0 9.0 0.00 0.06 0.06 66 1012.5
20260507223527 58 329 4.0 10.0 0.00 0.06 0.06 64 1012.4
20260507223046 58 309 4.0 10.0 0.00 0.06 0.06 62 1012.4
20260507222526 58 1 1.0 7.0 0.00 0.06 0.06 66 1012.2
20260507222027 58 347 2.0 7.0 0.00 0.06 0.06 66 1012.4
20260507221539 58 359 1.0 6.0 0.00 0.06 0.06 68 1012.4
20260507221030 58 342 2.0 6.0 0.00 0.06 0.06 67 1012.4
20260507220527 58 319 3.0 6.0 0.00 0.06 0.06 68 1012.4
20260507220038 58 331 3.0 6.0 0.00 0.06 0.06 67 1012.6
20260507215527 59 315 1.0 4.0 0.00 0.06 0.06 66 1012.8
20260507215027 59 340 1.0 6.0 0.00 0.06 0.06 62 1012.9
20260507214539 59 325 1.0 7.0 0.00 0.06 0.06 61 1012.7
20260507214026 59 347 3.0 7.0 0.00 0.06 0.06 59 1012.7
20260507213529 59 336 2.0 6.0 0.00 0.06 0.06 59 1012.8
20260507213037 59 325 3.0 7.0 0.00 0.06 0.06 58 1012.8
20260507212527 59 348 3.0 9.0 0.00 0.06 0.06 60 1012.6
20260507212027 59 314 2.0 9.0 0.00 0.06 0.06 61 1012.7
20260507211539 59 33 4.0 9.0 0.00 0.06 0.06 63 1012.7
20260507211026 59 360 1.0 11.0 0.00 0.06 0.06 60 1012.6
20260507210527 59 11 2.0 13.0 0.00 0.06 0.06 59 1012.7
20260507210105 59 286 4.0 13.0 0.00 0.06 0.06 57 1012.8
20260507205527 59 330 6.0 13.0 0.00 0.06 0.06 59 1012.9
20260507205027 59 314 7.0 13.0 0.00 0.06 0.06 59 1012.9
20260507204537 59 316 6.0 15.0 0.00 0.06 0.06 60 1012.8
20260507204026 59 328 6.0 18.0 0.00 0.06 0.06 60 1013.0
20260507203527 60 1 9.0 18.0 0.00 0.06 0.06 58 1013.0
20260507203037 61 352 9.0 18.0 0.00 0.06 0.06 54 1013.0
20260507202526 62 326 10.0 18.0 0.00 0.06 0.06 56 1013.1
20260507202026 62 323 9.0 18.0 0.00 0.06 0.06 53 1012.8
20260507201537 62 354 8.0 18.0 0.00 0.06 0.06 54 1012.7
20260507201029 62 308 5.0 14.0 0.00 0.06 0.06 59 1012.4
20260507200526 61 335 6.0 14.0 0.00 0.06 0.06 65 1012.4
20260507200052 58 14 7.0 14.0 0.00 0.06 0.06 63 1012.4
20260507195527 58 338 4.0 11.0 0.00 0.06 0.06 65 1012.8
20260507195028 57 8 5.0 11.0 0.00 0.06 0.06 66 1012.9
20260507194538 57 44 5.0 10.0 0.00 0.06 0.06 67 1012.8
20260507194026 57 49 6.0 10.0 0.00 0.06 0.06 66 1013.3
20260507193528 57 32 5.0 10.0 0.00 0.06 0.06 68 1013.2
20260507193102 56 72 4.0 10.0 0.00 0.06 0.06 70 1013.1
20260507192524 56 39 4.0 9.0 0.00 0.06 0.06 69 1013.3
20260507192025 56 325 2.0 9.0 0.00 0.06 0.06 69 1013.5
20260507191537 56 32 4.0 10.0 0.00 0.06 0.06 67 1013.6
20260507191027 56 54 3.0 11.0 0.00 0.06 0.06 68 1013.4
20260507190527 56 31 5.0 11.0 0.00 0.06 0.06 68 1013.3
20260507190039 57 32 4.0 11.0 0.00 0.06 0.06 67 1013.3
20260507185528 56 39 6.0 12.0 0.00 0.06 0.06 67 1013.3
20260507185028 57 10 6.0 12.0 0.00 0.06 0.06 69 1013.4
20260507184540 56 56 5.0 10.0 0.00 0.06 0.06 68 1013.5
20260507184026 56 39 5.0 10.0 0.00 0.06 0.06 68 1013.8
20260507183530 56 44 4.0 8.0 0.00 0.06 0.06 65 1013.6
20260507183040 56 108 4.0 10.0 0.00 0.06 0.06 66 1013.6
20260507182527 56 21 5.0 10.0 0.00 0.06 0.06 66 1013.6
20260507182026 57 37 6.0 12.0 0.00 0.06 0.06 66 1013.6
20260507181536 56 82 4.0 12.0 0.00 0.06 0.06 65 1013.6
20260507181028 56 354 5.0 10.0 0.00 0.06 0.06 68 1013.5
20260507180526 56 96 5.0 10.0 0.00 0.06 0.06 71 1013.5
20260507180037 56 28 5.0 8.0 0.00 0.06 0.06 73 1013.5
20260507175526 55 86 4.0 10.0 0.00 0.06 0.06 72 1013.5
20260507175028 55 68 4.0 10.0 0.00 0.06 0.06 76 1013.5
20260507174536 56 35 4.0 10.0 0.00 0.06 0.06 74 1013.7
20260507174025 55 51 6.0 10.0 0.00 0.06 0.06 74 1013.6
20260507173526 56 35 4.0 10.0 0.00 0.06 0.06 75 1013.6
20260507173047 55 83 5.0 9.0 0.00 0.06 0.06 75 1013.6
20260507172542 55 27 4.0 9.0 0.00 0.06 0.06 74 1013.7
20260507172025 54 21 4.0 9.0 0.00 0.06 0.06 76 1013.7
20260507171538 54 34 4.0 9.0 0.00 0.06 0.06 77 1013.8
20260507171027 54 60 5.0 9.0 0.00 0.06 0.06 76 1013.7
20260507170527 53 20 5.0 12.0 0.00 0.06 0.06 77 1013.9
20260507170038 53 70 4.0 12.0 0.00 0.06 0.06 76 1013.9
20260507165526 53 61 6.0 11.0 0.00 0.06 0.06 75 1013.8
20260507165029 54 8 5.0 9.0 0.00 0.06 0.06 76 1013.9
20260507164538 53 83 4.0 9.0 0.00 0.06 0.06 76 1013.9